RH
30 28 23 16 15 10 8 8 11 12 8 10 18 24 27 29 27 25 21 23 24 25 22 22 22 22 21 25 27 26 26 24 22
34 27 21 14 9 6 8 19 16 10 9 12 19 24 27 28 28 29 28 23 20 18 20 18 17 17 19 21 24 21 22 19 18
33 24 16 12 8 7 15 25 24 24 13 12 21 24 27 29 29 28 27 25 22 19 20 20 18 17 15 18 19 18 18 17 16
21 17 13 11 9 17 24 24 25 24 22 16 22 27 30 32 30 29 27 23 18 20 19 20 19 16 16 15 18 18 18 15 15
27 21 15 12 14 25 25 25 25 25 25 19 26 31 35 32 30 29 27 21 18 18 19 18 18 18 18 18 18 17 18 13 17
31 23 16 11 20 25 25 23 25 26 27 23 32 41 35 32 30 29 27 21 16 17 19 18 17 18 17 17 16 17 17 16 17
36 26 19 14 18 25 26 25 23 24 28 28 32 34 34 36 36 33 27 23 17 15 18 18 17 17 17 14 14 15 17 17 18
39 29 24 18 16 23 26 24 21 26 31 30 30 36 35 33 31 34 26 19 20 18 18 18 17 17 17 16 15 14 17 17 16
39 30 27 24 22 22 23 26 24 27 25 28 29 30 30 31 36 31 28 24 25 22 20 18 16 16 17 14 13 17 17 13 18
38 31 28 27 23 21 20 21 22 25 24 25 27 27 28 27 29 27 28 28 30 28 29 28 18 17 16 13 15 15 18 17 19
38 33 28 26 25 23 22 22 22 23 22 23 26 27 28 26 26 28 28 26 28 31 29 19 17 17 17 16 14 14 19 18 19
36 34 29 26 27 24 24 24 24 21 20 25 26 26 24 21 22 24 26 22 22 23 20 20 18 18 18 16 17 16 20 20 19
32 28 28 28 26 25 24 26 24 21 20 22 25 25 23 20 19 16 20 19 19 19 20 18 14 18 19 19 16 19 24 23 21
32 25 26 28 26 26 27 28 24 21 22 25 24 23 22 20 18 18 18 15 18 19 13 16 18 20 21 23 24 21 26 25 24
33 26 26 27 26 26 28 28 25 22 21 23 23 21 20 20 20 18 14 11 13 16 15 22 19 24 27 27 27 25 26 26 28
40 26 27 27 27 26 27 27 26 24 23 23 23 22 20 20 19 18 14 11 12 13 18 28 30 24 21 26 26 26 27 26 26
52 27 27 28 28 26 29 27 27 25 23 22 22 22 21 20 19 15 13 14 16 20 28 32 28 25 24 22 21 21 21 22 22
52 34 29 29 29 23 25 26 24 22 23 23 22 25 23 20 19 18 17 19 23 31 35 35 29 23 22 22 21 20 20 19 19
46 39 30 30 29 26 25 25 24 23 23 22 20 19 22 20 19 20 20 24 32 36 37 34 28 23 21 21 20 19 18 18 18
34 37 36 34 31 28 27 26 25 24 23 20 19 19 20 20 20 20 25 32 38 38 36 31 27 23 21 19 19 19 18 18 17